Weather History for Hutchinson, KS

Change the Weather History Date:

Sunday, February 3, 2013

  Actual Average Record
Temperature  
Mean Temperature 40 °F -  
Max Temperature 57 °F 40 °F 61 °F (1999)
Min Temperature 23 °F 20 °F -5 °F (2011)
Degree Days  
Heating Degree Days 25    
Moisture  
Dew Point 23 °F    
Average Humidity 45    
Maximum Humidity 78    
Minimum Humidity 24    
Precipitation  
Precipitation 0.00 in - - ()
Sea Level Pressure  
Sea Level Pressure 30.09 in    
Wind  
Wind Speed 10 mph (SSE)    
Max Wind Speed 24 mph    
Max Gust Speed 29 mph    
Visibility 10 miles    
Events      
Averages and records for this station are not official NWS values.
T = Trace of Precipitation, MM = Missing Value Source: NWS Daily Summary

Daily Weather History Graph

Daily Weather History Graph

Search for Another Location

Airport:

Trip Planner

Search our weather history database for the weather conditions in past years. The results will help you decide how hot, cold, wet, or windy it might be!

Date:

Astronomy

Feb. 03, 2013 Rise Set
Actual Time 7:33 AM CST 5:57 PM CST
Civil Twilight 7:06 AM CST 6:24 PM CST
Nautical Twilight 6:34 AM CST 6:56 PM CST
Astronomical Twilight 6:04 AM CST 7:27 PM CST
Moon 1:02 AM CST (2/3) 11:35 AM CST (2/3)
Length of Visible Light 11h 18m
Length of Day
10h 23m
Waning Gibbous, 48% of the Moon is Illuminated
Feb 3
Waning Gibbous
Feb 10
New
Feb 17
First Quarter
Feb 25
Full
Mar 4
Last Quarter

Hourly Weather History & Observations

Time (CST) Temp. Windchill Dew Point Humidity Pressure Visibility Wind Dir Wind Speed Gust Speed Precip Events Conditions
12:52 AM 30.9 °F 24.3 °F 23.0 °F 72% 30.27 in 10.0 mi NNW 6.9 mph - N/A   Clear
1:52 AM 43.0 °F 35.1 °F 23.0 °F 45% 30.25 in 10.0 mi North 17.3 mph 24.2 mph N/A   Clear
4:52 AM 39.0 °F 32.3 °F 23.0 °F 53% 30.25 in 10.0 mi North 10.4 mph - N/A   Clear
5:52 AM 36.0 °F 33.3 °F 21.9 °F 57% 30.27 in 10.0 mi North 3.5 mph - N/A   Clear
6:52 AM 28.9 °F - 19.9 °F 69% 30.28 in 10.0 mi Calm Calm - N/A   Clear
7:52 AM 23.0 °F - 17.1 °F 78% 30.29 in 10.0 mi Calm Calm - N/A   Clear
8:52 AM 34.0 °F - 24.1 °F 67% 30.28 in 10.0 mi Calm Calm - N/A   Clear
9:52 AM 41.0 °F 36.4 °F 25.0 °F 53% 30.26 in 10.0 mi ESE 6.9 mph - N/A   Clear
10:52 AM 45.0 °F 41.2 °F 23.0 °F 42% 30.24 in 10.0 mi ESE 6.9 mph - N/A   Clear
11:52 AM 48.9 °F - 23.0 °F 36% 30.20 in 10.0 mi SE 12.7 mph - N/A   Clear
12:52 PM 52.0 °F - 21.0 °F 30% 30.15 in 10.0 mi South 12.7 mph - N/A   Clear
1:52 PM 55.0 °F - 21.0 °F 27% 30.08 in 10.0 mi South 18.4 mph 25.3 mph N/A   Clear
2:52 PM 55.9 °F - 19.9 °F 25% 30.03 in 10.0 mi South 20.7 mph - N/A   Clear
3:52 PM 57.0 °F - 19.9 °F 24% 29.99 in 10.0 mi South 24.2 mph 28.8 mph N/A   Clear
4:52 PM 55.0 °F - 21.9 °F 28% 29.96 in 10.0 mi South 19.6 mph 24.2 mph N/A   Clear
5:52 PM 51.1 °F - 24.1 °F 35% 29.94 in 10.0 mi South 13.8 mph - N/A   Clear
6:52 PM 50.0 °F - 25.0 °F 38% 29.93 in 10.0 mi South 12.7 mph - N/A   Clear
7:52 PM 48.0 °F - 26.1 °F 42% 29.92 in 10.0 mi SSE 10.4 mph - N/A   Clear
8:52 PM 48.0 °F - 27.0 °F 44% 29.88 in 10.0 mi South 12.7 mph - N/A   Clear
9:52 PM 50.0 °F - 28.0 °F 43% 29.86 in 10.0 mi South 16.1 mph - N/A   Clear
10:52 PM 50.0 °F - 28.0 °F 43% 29.83 in 10.0 mi South 13.8 mph - N/A   Clear
11:52 PM 48.9 °F - 28.0 °F 44% 29.82 in 10.0 mi South 10.4 mph - N/A   Clear